HEMA - Marsa Alam Intl. Airport

HEMA 152300Z 30010KT CAVOK 17/04 Q1016 NOSIG


Sceneries:

Scenery Link
HEMA/RMF - SimDesignGroup - MARSA AALAM/HEMA V2

Briefing & Aerodrome Charts:

To be uploaded soon! Stay tuned!


Our Partners

VATSIM

VATSIM is the Virtual Air Traffic Simulation network, connecting people from around the world flying online or acting as virtual Air Traffic Controllers.

VATME

VATME - VATSIM Middle East Divison is part of the Africa and Middle East Region on the VATSIM Network.

Egyptair Virtual

Egyptair Virtual simulates the real life operations of Egyptair yet is not releated to the actual Egyptair.